Location: *
(47.2969°N, 10.2930°E)
Time: 13:25:36
(UTC+00:00)

SL-16 R/B - Pass Details

Date: 09 April 2020
Orbit: 985 x 1007 km, 99.5° (Epoch: 28 May)

Event Time Altitude Azimuth Distance (km) Brightness Sun altitude
Exits shadow 23:48:39 31° 79° (E) 1,675 3.8 -34.3°
Maximum altitude 23:49:40 33° 61° (ENE) 1,622 3.8 -34.3°
Drops below altitude 10° 23:55:06 10° 0° (N) 2,774 5.7 -34.1°
Sets 23:57:48 0° 351° (N) 3,724 6.5 -34.0°
